Time,TemperatureF,DewpointF,PressureIn,WindDirection,WindDirectionDegrees,WindSpeedMPH,WindSpeedGustMPH,Humidity,HourlyPrecipIn,Conditions,Clouds,dailyrainin,SoftwareType,DateUTC
2013-04-21 00:00:00,57.2,56.1,30.15,North,5,0.0,5.0,96,0.00,,---,0.15,VWS V14.01,2013-04-21 04:00:00,
2013-04-21 00:01:00,57.2,56.1,30.15,North,5,0.0,3.0,96,0.00,,---,0.00,VWS V14.01,2013-04-21 04:01:00,
2013-04-21 00:03:00,57.2,56.1,30.15,North,5,0.0,3.0,96,0.00,,---,0.00,VWS V14.01,2013-04-21 04:03:00,
2013-04-21 00:08:00,57.2,56.1,30.15,North,5,1.0,3.0,96,0.00,,---,0.00,VWS V14.01,2013-04-21 04:08:00,
2013-04-21 00:13:00,57.2,56.1,30.15,North,5,0.0,3.0,96,0.00,,---,0.00,VWS V14.01,2013-04-21 04:13:00,
2013-04-21 00:18:00,57.3,56.2,30.15,North,5,0.0,3.0,96,0.00,,---,0.00,VWS V14.01,2013-04-21 04:18:00,
2013-04-21 00:23:00,57.4,56.3,30.14,North,5,0.0,3.0,96,0.00,,---,0.00,VWS V14.01,2013-04-21 04:23:00,
2013-04-21 00:28:00,57.4,56.3,30.14,North,5,0.0,3.0,96,0.00,,---,0.00,VWS V14.01,2013-04-21 04:28:00,
2013-04-21 00:30:00,57.4,56.3,30.14,North,5,1.0,3.0,96,0.00,,---,0.00,VWS V14.01,2013-04-21 04:30:00,
2013-04-21 00:33:00,57.5,56.4,30.14,North,5,1.0,3.0,96,0.00,,---,0.00,VWS V14.01,2013-04-21 04:33:00,
2013-04-21 00:38:00,57.5,56.4,30.14,North,5,0.0,3.0,96,0.00,,---,0.00,VWS V14.01,2013-04-21 04:38:00,
2013-04-21 00:43:00,57.5,56.4,30.14,North,5,0.0,3.0,96,0.00,,---,0.00,VWS V14.01,2013-04-21 04:43:00,
2013-04-21 00:48:00,57.6,56.5,30.14,North,5,0.0,3.0,96,0.00,,---,0.00,VWS V14.01,2013-04-21 04:48:00,
2013-04-21 00:53:00,57.6,56.5,30.14,North,5,0.0,3.0,96,0.00,,---,0.00,VWS V14.01,2013-04-21 04:53:00,
2013-04-21 00:58:00,57.6,56.5,30.14,North,5,1.0,3.0,96,0.00,,---,0.00,VWS V14.01,2013-04-21 04:58:00,
2013-04-21 01:00:00,57.6,56.5,30.14,North,5,1.0,3.0,96,0.00,,---,0.00,VWS V14.01,2013-04-21 05:00:00,
2013-04-21 01:03:00,57.6,56.5,30.14,North,5,0.0,1.0,96,0.00,,---,0.00,VWS V14.01,2013-04-21 05:03:00,
2013-04-21 01:08:00,57.6,56.5,30.14,North,5,0.0,3.0,96,0.00,,---,0.00,VWS V14.01,2013-04-21 05:08:00,
2013-04-21 01:13:00,57.6,56.5,30.13,North,5,1.0,3.0,96,0.00,,---,0.00,VWS V14.01,2013-04-21 05:13:00,
2013-04-21 01:18:00,57.5,56.4,30.13,North,5,0.0,3.0,96,0.00,,---,0.00,VWS V14.01,2013-04-21 05:18:00,
2013-04-21 01:23:00,57.5,56.4,30.13,North,5,0.0,3.0,96,0.00,,---,0.00,VWS V14.01,2013-04-21 05:23:00,
2013-04-21 01:30:00,57.6,56.5,30.13,North,0,1.0,3.0,96,0.00,,---,0.00,VWS V14.01,2013-04-21 05:30:00,
2013-04-21 02:00:00,57.6,56.5,30.12,North,0,1.0,4.0,96,0.00,,---,0.00,VWS V14.01,2013-04-21 06:00:00,
2013-04-21 02:30:00,57.9,56.8,30.10,North,0,1.0,5.0,96,0.00,,---,0.00,VWS V14.01,2013-04-21 06:30:00,
2013-04-21 03:00:00,58.1,57.0,30.09,North,0,1.0,5.0,96,0.00,,---,0.00,VWS V14.01,2013-04-21 07:00:00,
2013-04-21 03:30:00,58.6,57.5,30.08,North,0,1.0,5.0,96,0.00,,---,0.00,VWS V14.01,2013-04-21 07:30:00,
2013-04-21 04:00:00,58.9,57.8,30.08,North,0,2.0,7.0,96,0.00,,---,0.00,VWS V14.01,2013-04-21 08:00:00,
2013-04-21 04:30:00,59.4,58.5,30.08,North,0,2.0,7.0,97,0.00,,---,0.00,VWS V14.01,2013-04-21 08:30:00,
2013-04-21 05:00:00,60.1,59.2,30.08,NNE,22,1.0,6.0,97,0.00,,---,0.00,VWS V14.01,2013-04-21 09:00:00,
2013-04-21 05:30:00,60.8,60.0,30.08,NNE,22,1.0,9.0,97,0.00,,---,0.00,VWS V14.01,2013-04-21 09:30:00,
2013-04-21 06:00:00,61.9,60.2,30.09,NE,45,3.0,10.0,94,0.00,,---,0.00,VWS V14.01,2013-04-21 10:00:00,
2013-04-21 06:30:00,62.5,60.5,30.09,NE,45,3.0,11.0,93,0.00,,---,0.00,VWS V14.01,2013-04-21 10:30:00,
2013-04-21 07:00:00,62.8,60.5,30.10,NE,45,3.0,9.0,92,0.00,,---,0.00,VWS V14.01,2013-04-21 11:00:00,
2013-04-21 07:30:00,63.1,60.7,30.11,NE,45,3.0,10.0,92,0.00,,---,0.00,VWS V14.01,2013-04-21 11:30:00,
2013-04-21 08:00:00,63.6,60.9,30.11,NE,45,3.0,10.0,91,0.00,,---,0.00,VWS V14.01,2013-04-21 12:00:00,
2013-04-21 08:30:00,63.1,60.7,30.11,NE,45,3.0,10.0,92,0.00,,---,0.00,VWS V14.01,2013-04-21 12:30:00,
2013-04-21 08:50:00,66.0,62.7,30.10,ENE,60,2.0,3.0,89,0.00,,---,0.00,VWS V14.01,2013-04-21 12:50:00,
2013-04-21 08:55:00,66.7,63.0,30.10,ENE,66,13.0,13.0,88,0.00,,---,0.00,VWS V14.01,2013-04-21 12:55:00,
2013-04-21 09:00:00,67.0,63.0,30.10,ENE,57,10.0,10.0,87,0.00,,---,0.00,VWS V14.01,2013-04-21 13:00:00,
2013-04-21 09:05:00,67.5,63.5,30.10,NE,56,4.0,10.0,87,0.00,,---,0.00,VWS V14.01,2013-04-21 13:05:00,
2013-04-21 09:10:00,67.9,63.6,30.10,NE,55,12.0,12.0,86,0.00,,---,0.00,VWS V14.01,2013-04-21 13:10:00,
2013-04-21 09:15:00,68.3,64.3,30.10,NE,48,5.0,12.0,87,0.00,,---,0.00,VWS V14.01,2013-04-21 13:15:00,
2013-04-21 09:20:00,68.8,64.4,30.10,ENE,61,12.0,14.0,86,0.00,,---,0.00,VWS V14.01,2013-04-21 13:20:00,
2013-04-21 09:25:00,69.0,64.3,30.10,ENE,63,10.0,14.0,85,0.00,,---,0.00,VWS V14.01,2013-04-21 13:25:00,
2013-04-21 09:30:00,69.4,64.7,30.10,East,92,3.0,8.0,85,0.00,,---,0.00,VWS V14.01,2013-04-21 13:30:00,
2013-04-21 09:35:00,69.9,65.2,30.10,ENE,58,10.0,14.0,85,0.00,,---,0.00,VWS V14.01,2013-04-21 13:35:00,
2013-04-21 09:54:00,70.7,65.6,30.11,NE,55,8.0,8.0,84,0.00,,---,0.00,VWS V14.01,2013-04-21 13:54:00,
2013-04-21 09:59:00,71.1,65.7,30.11,ENE,65,9.0,14.0,83,0.00,,---,0.00,VWS V14.01,2013-04-21 13:59:00,
2013-04-21 10:00:00,71.1,65.7,30.11,NE,46,12.0,15.0,83,0.00,,---,0.00,VWS V14.01,2013-04-21 14:00:00,
2013-04-21 10:04:00,71.2,65.8,30.11,NE,55,8.0,12.0,83,0.00,,---,0.00,VWS V14.01,2013-04-21 14:04:00,
2013-04-21 10:09:00,71.1,65.7,30.11,ENE,78,4.0,13.0,83,0.00,,---,0.00,VWS V14.01,2013-04-21 14:09:00,
2013-04-21 10:14:00,71.2,66.1,30.11,East,87,5.0,13.0,84,0.00,,---,0.00,VWS V14.01,2013-04-21 14:14:00,
2013-04-21 10:19:00,71.4,66.3,30.12,ENE,65,4.0,13.0,84,0.00,,---,0.00,VWS V14.01,2013-04-21 14:19:00,
2013-04-21 10:25:00,71.4,66.0,30.12,ENE,63,3.0,13.0,83,0.00,,---,0.00,VWS V14.01,2013-04-21 14:25:00,
2013-04-21 10:30:00,71.6,66.9,30.12,ENE,59,2.0,3.0,85,0.00,,---,0.00,VWS V14.01,2013-04-21 14:30:00,
2013-04-21 10:35:00,72.0,66.6,30.12,East,87,7.0,10.0,83,0.00,,---,0.00,VWS V14.01,2013-04-21 14:35:00,
2013-04-21 10:40:00,72.1,66.7,30.12,ENE,71,1.0,12.0,83,0.00,,---,0.00,VWS V14.01,2013-04-21 14:40:00,
2013-04-21 10:45:00,72.4,66.9,30.12,ENE,57,8.0,13.0,83,0.00,,---,0.00,VWS V14.01,2013-04-21 14:45:00,
2013-04-21 10:50:00,72.4,66.9,30.12,NE,44,5.0,13.0,83,0.00,,---,0.00,VWS V14.01,2013-04-21 14:50:00,
2013-04-21 10:55:00,72.5,67.1,30.12,ENE,65,5.0,13.0,83,0.00,,---,0.00,VWS V14.01,2013-04-21 14:55:00,
2013-04-21 11:00:00,72.9,67.8,30.12,ENE,58,8.0,8.0,84,0.00,,---,0.00,VWS V14.01,2013-04-21 15:00:00,
2013-04-21 11:05:00,73.3,67.1,30.12,NE,55,9.0,18.0,81,0.00,,---,0.00,VWS V14.01,2013-04-21 15:05:00,
2013-04-21 11:10:00,74.1,68.3,30.12,East,92,5.0,18.0,82,0.00,,---,0.00,VWS V14.01,2013-04-21 15:10:00,
2013-04-21 11:15:00,74.7,68.5,30.12,ENE,74,11.0,18.0,81,0.00,,---,0.00,VWS V14.01,2013-04-21 15:15:00,
2013-04-21 11:20:00,74.9,67.9,30.12,East,89,6.0,18.0,79,0.00,,---,0.00,VWS V14.01,2013-04-21 15:20:00,
2013-04-21 11:25:00,74.7,68.8,30.12,East,84,6.0,18.0,82,0.00,,---,0.00,VWS V14.01,2013-04-21 15:25:00,
2013-04-21 11:30:00,74.6,68.0,30.12,ENE,64,10.0,15.0,80,0.00,,---,0.00,VWS V14.01,2013-04-21 15:30:00,
2013-04-21 11:35:00,74.6,68.4,30.12,East,97,6.0,15.0,81,0.00,,---,0.00,VWS V14.01,2013-04-21 15:35:00,
2013-04-21 11:40:00,74.9,68.3,30.12,East,80,5.0,15.0,80,0.00,,---,0.00,VWS V14.01,2013-04-21 15:40:00,
2013-04-21 11:45:00,74.7,68.1,30.12,ENE,71,7.0,15.0,80,0.00,,---,0.00,VWS V14.01,2013-04-21 15:45:00,
2013-04-21 11:50:00,74.6,68.4,30.12,NE,55,6.0,15.0,81,0.00,,---,0.00,VWS V14.01,2013-04-21 15:50:00,
2013-04-21 11:55:00,74.6,68.0,30.12,East,80,5.0,15.0,80,0.00,,---,0.00,VWS V14.01,2013-04-21 15:55:00,
2013-04-21 12:00:00,74.6,68.0,30.12,ENE,59,8.0,8.0,80,0.00,,---,0.00,VWS V14.01,2013-04-21 16:00:00,
2013-04-21 12:06:00,74.7,68.5,30.12,East,86,5.0,11.0,81,0.00,,---,0.00,VWS V14.01,2013-04-21 16:06:00,
2013-04-21 12:11:00,74.8,68.2,30.12,NE,56,8.0,11.0,80,0.00,,---,0.00,VWS V14.01,2013-04-21 16:11:00,
2013-04-21 12:16:00,75.0,68.4,30.12,NE,49,6.0,11.0,80,0.00,,---,0.00,VWS V14.01,2013-04-21 16:16:00,
2013-04-21 12:21:00,75.0,68.4,30.12,ENE,74,2.0,11.0,80,0.00,,---,0.00,VWS V14.01,2013-04-21 16:21:00,
2013-04-21 12:26:00,75.1,68.5,30.11,ENE,78,3.0,11.0,80,0.00,,---,0.00,VWS V14.01,2013-04-21 16:26:00,
2013-04-21 12:30:00,75.2,68.6,30.11,NE,44,7.0,11.0,80,0.00,,---,0.00,VWS V14.01,2013-04-21 16:30:00,
2013-04-21 12:31:00,75.2,68.6,30.11,ENE,63,5.0,7.0,80,0.00,,---,0.00,VWS V14.01,2013-04-21 16:31:00,
2013-04-21 12:36:00,75.2,69.0,30.11,NE,46,5.0,8.0,81,0.00,,---,0.00,VWS V14.01,2013-04-21 16:36:00,
2013-04-21 12:41:00,75.2,68.6,30.11,ENE,60,7.0,10.0,80,0.00,,---,0.00,VWS V14.01,2013-04-21 16:41:00,
2013-04-21 12:46:00,75.1,68.5,30.11,NE,55,7.0,10.0,80,0.00,,---,0.00,VWS V14.01,2013-04-21 16:46:00,
2013-04-21 12:51:00,74.9,68.7,30.11,NE,42,4.0,10.0,81,0.00,,---,0.00,VWS V14.01,2013-04-21 16:51:00,
2013-04-21 12:56:00,74.8,68.6,30.11,NNE,30,2.0,10.0,81,0.00,,---,0.00,VWS V14.01,2013-04-21 16:56:00,
2013-04-21 13:00:00,74.9,68.7,30.11,North,5,6.0,10.0,81,0.00,,---,0.00,VWS V14.01,2013-04-21 17:00:00,
2013-04-21 13:01:00,75.0,68.8,30.11,NNE,20,2.0,6.0,81,0.00,,---,0.00,VWS V14.01,2013-04-21 17:01:00,
2013-04-21 13:06:00,75.2,68.6,30.11,NE,49,3.0,6.0,80,0.00,,---,0.00,VWS V14.01,2013-04-21 17:06:00,
2013-04-21 13:11:00,75.3,69.1,30.10,NE,53,2.0,6.0,81,0.00,,---,0.00,VWS V14.01,2013-04-21 17:11:00,
2013-04-21 13:16:00,75.2,68.6,30.11,North,360,2.0,7.0,80,0.00,,---,0.00,VWS V14.01,2013-04-21 17:16:00,
2013-04-21 13:21:00,75.1,68.5,30.10,NNW,335,5.0,8.0,80,0.00,,---,0.00,VWS V14.01,2013-04-21 17:21:00,
2013-04-21 13:26:00,75.1,68.9,30.10,NE,35,4.0,8.0,81,0.00,,---,0.00,VWS V14.01,2013-04-21 17:26:00,
2013-04-21 13:30:00,75.1,68.5,30.10,NNE,26,2.0,8.0,80,0.00,,---,0.00,VWS V14.01,2013-04-21 17:30:00,
2013-04-21 13:31:00,75.1,68.5,30.10,North,5,5.0,5.0,80,0.00,,---,0.00,VWS V14.01,2013-04-21 17:31:00,
2013-04-21 13:36:00,75.0,68.8,30.10,North,5,1.0,8.0,81,0.00,,---,0.00,VWS V14.01,2013-04-21 17:36:00,
2013-04-21 13:41:00,74.9,68.7,30.10,NNE,14,5.0,9.0,81,0.00,,---,0.00,VWS V14.01,2013-04-21 17:41:00,
2013-04-21 13:46:00,74.8,68.6,30.10,North,5,3.0,9.0,81,0.00,,---,0.00,VWS V14.01,2013-04-21 17:46:00,
2013-04-21 13:51:00,74.8,68.6,30.09,NE,38,4.0,10.0,81,0.00,,---,0.00,VWS V14.01,2013-04-21 17:51:00,
2013-04-21 13:56:00,74.7,68.8,30.09,NE,55,3.0,10.0,82,0.00,,---,0.00,VWS V14.01,2013-04-21 17:56:00,
2013-04-21 14:00:00,74.7,68.8,30.09,NE,51,2.0,10.0,82,0.00,,---,0.00,VWS V14.01,2013-04-21 18:00:00,
2013-04-21 14:02:00,74.7,69.2,30.09,NE,53,4.0,5.0,83,0.00,,---,0.00,VWS V14.01,2013-04-21 18:02:00,
2013-04-21 14:07:00,74.8,69.3,30.09,NE,51,3.0,8.0,83,0.00,,---,0.00,VWS V14.01,2013-04-21 18:07:00,
2013-04-21 14:12:00,75.2,69.7,30.09,NE,40,4.0,8.0,83,0.00,,---,0.00,VWS V14.01,2013-04-21 18:12:00,
2013-04-21 14:17:00,75.7,69.8,30.09,NE,50,8.0,9.0,82,0.00,,---,0.00,VWS V14.01,2013-04-21 18:17:00,
2013-04-21 14:22:00,76.3,69.7,30.08,NE,47,4.0,9.0,80,0.00,,---,0.00,VWS V14.01,2013-04-21 18:22:00,
2013-04-21 14:27:00,76.7,70.1,30.08,NE,38,2.0,10.0,80,0.00,,---,0.00,VWS V14.01,2013-04-21 18:27:00,
2013-04-21 14:30:00,77.0,70.0,30.08,NE,53,8.0,12.0,79,0.00,,---,0.00,VWS V14.01,2013-04-21 18:30:00,
2013-04-21 14:32:00,77.0,69.6,30.08,NE,42,4.0,12.0,78,0.00,,---,0.00,VWS V14.01,2013-04-21 18:32:00,
2013-04-21 14:37:00,77.2,70.2,30.08,ENE,57,11.0,12.0,79,0.00,,---,0.00,VWS V14.01,2013-04-21 18:37:00,
2013-04-21 14:42:00,77.1,70.1,30.08,NNE,19,4.0,13.0,79,0.00,,---,0.00,VWS V14.01,2013-04-21 18:42:00,
2013-04-21 14:47:00,77.1,70.1,30.08,NNE,13,4.0,13.0,79,0.00,,---,0.00,VWS V14.01,2013-04-21 18:47:00,
2013-04-21 14:52:00,77.1,69.7,30.07,NE,47,7.0,13.0,78,0.00,,---,0.00,VWS V14.01,2013-04-21 18:52:00,
2013-04-21 14:57:00,77.0,70.0,30.06,NE,42,6.0,14.0,79,0.00,,---,0.00,VWS V14.01,2013-04-21 18:57:00,
2013-04-21 15:00:00,76.8,69.4,30.06,North,5,3.0,14.0,78,0.00,,---,0.00,VWS V14.01,2013-04-21 19:00:00,
2013-04-21 15:02:00,76.5,69.1,30.06,NE,34,3.0,11.0,78,0.00,,---,0.00,VWS V14.01,2013-04-21 19:02:00,
2013-04-21 15:07:00,76.2,69.2,30.06,NNE,31,4.0,11.0,79,0.00,,---,0.00,VWS V14.01,2013-04-21 19:07:00,
2013-04-21 15:12:00,76.2,69.6,30.06,NE,38,4.0,11.0,80,0.00,,---,0.00,VWS V14.01,2013-04-21 19:12:00,
2013-04-21 15:20:00,76.2,69.2,30.06,NNE,24,7.0,7.0,79,0.00,,---,0.00,VWS V14.01,2013-04-21 19:20:00,
2013-04-21 15:25:00,75.7,68.7,30.06,NE,55,4.0,11.0,79,0.00,,---,0.00,VWS V14.01,2013-04-21 19:25:00,
2013-04-21 15:30:00,75.3,68.3,30.06,NNW,342,4.0,7.0,79,0.00,,---,0.00,VWS V14.01,2013-04-21 19:30:00,
2013-04-21 15:35:00,74.9,68.3,30.06,North,5,3.0,10.0,80,0.00,,---,0.00,VWS V14.01,2013-04-21 19:35:00,
2013-04-21 15:40:00,74.7,68.5,30.06,NE,40,7.0,10.0,81,0.00,,---,0.00,VWS V14.01,2013-04-21 19:40:00,
2013-04-21 15:45:00,74.4,68.2,30.06,NE,40,6.0,10.0,81,0.00,,---,0.00,VWS V14.01,2013-04-21 19:45:00,
2013-04-21 15:50:00,74.3,68.4,30.05,NE,42,9.0,11.0,82,0.00,,---,0.00,VWS V14.01,2013-04-21 19:50:00,
2013-04-21 15:55:00,74.3,68.4,30.05,NE,54,4.0,15.0,82,0.00,,---,0.00,VWS V14.01,2013-04-21 19:55:00,
2013-04-21 16:00:00,74.2,68.4,30.05,ENE,76,5.0,9.0,82,0.00,,---,0.00,VWS V14.01,2013-04-21 20:00:00,
2013-04-21 16:06:00,74.0,68.5,30.05,NNE,24,10.0,11.0,83,0.00,,---,0.00,VWS V14.01,2013-04-21 20:06:00,
2013-04-21 16:11:00,74.0,68.5,30.04,ENE,61,3.0,11.0,83,0.00,,---,0.00,VWS V14.01,2013-04-21 20:11:00,
2013-04-21 16:16:00,73.8,68.3,30.04,ENE,60,8.0,11.0,83,0.00,,---,0.00,VWS V14.01,2013-04-21 20:16:00,
2013-04-21 16:21:00,73.4,67.9,30.04,ENE,70,8.0,14.0,83,0.00,,---,0.00,VWS V14.01,2013-04-21 20:21:00,
2013-04-21 16:26:00,73.3,68.2,30.03,ENE,64,9.0,14.0,84,0.00,,---,0.00,VWS V14.01,2013-04-21 20:26:00,
2013-04-21 16:30:00,73.4,68.3,30.02,ENE,70,4.0,14.0,84,0.00,,---,0.00,VWS V14.01,2013-04-21 20:30:00,
2013-04-21 16:31:00,73.6,68.5,30.02,NE,48,8.0,10.0,84,0.00,,---,0.00,VWS V14.01,2013-04-21 20:31:00,
2013-04-21 16:36:00,74.1,68.6,30.03,ENE,65,10.0,11.0,83,0.00,,---,0.00,VWS V14.01,2013-04-21 20:36:00,
2013-04-21 16:41:00,74.3,68.4,30.04,NE,53,6.0,15.0,82,0.00,,---,0.00,VWS V14.01,2013-04-21 20:41:00,
2013-04-21 16:46:00,73.9,68.1,30.03,NE,43,2.0,15.0,82,0.00,,---,0.00,VWS V14.01,2013-04-21 20:46:00,
2013-04-21 16:51:00,73.7,68.2,30.03,NNE,27,9.0,15.0,83,0.00,,---,0.00,VWS V14.01,2013-04-21 20:51:00,
2013-04-21 16:56:00,73.4,68.3,30.04,ENE,68,11.0,15.0,84,0.00,,---,0.00,VWS V14.01,2013-04-21 20:56:00,
2013-04-21 17:00:00,73.3,68.2,30.04,ENE,61,7.0,15.0,84,0.00,,---,0.00,VWS V14.01,2013-04-21 21:00:00,
2013-04-21 17:01:00,73.3,68.2,30.04,NE,39,4.0,9.0,84,0.00,,---,0.00,VWS V14.01,2013-04-21 21:01:00,
2013-04-21 17:06:00,73.3,68.2,30.04,NE,55,5.0,11.0,84,0.00,,---,0.00,VWS V14.01,2013-04-21 21:06:00,
2013-04-21 17:11:00,73.1,68.0,30.04,NE,54,3.0,11.0,84,0.00,,---,0.00,VWS V14.01,2013-04-21 21:11:00,
2013-04-21 17:16:00,73.0,67.9,30.03,ENE,57,4.0,11.0,84,0.00,,---,0.00,VWS V14.01,2013-04-21 21:16:00,
2013-04-21 17:21:00,72.9,67.8,30.03,ENE,58,3.0,11.0,84,0.00,,---,0.00,VWS V14.01,2013-04-21 21:21:00,
2013-04-21 17:26:00,72.8,67.7,30.03,NE,37,6.0,11.0,84,0.00,,---,0.00,VWS V14.01,2013-04-21 21:26:00,
2013-04-21 17:30:00,72.8,67.7,30.03,NE,40,2.0,11.0,84,0.00,,---,0.00,VWS V14.01,2013-04-21 21:30:00,
2013-04-21 17:31:00,72.7,67.6,30.03,NE,48,3.0,4.0,84,0.00,,---,0.00,VWS V14.01,2013-04-21 21:31:00,
2013-04-21 17:36:00,72.7,67.9,30.04,NE,34,9.0,9.0,85,0.00,,---,0.00,VWS V14.01,2013-04-21 21:36:00,
2013-04-21 17:41:00,72.5,67.7,30.05,NNE,16,1.0,9.0,85,0.00,,---,0.00,VWS V14.01,2013-04-21 21:41:00,
2013-04-21 17:46:00,72.4,67.6,30.05,ENE,62,5.0,9.0,85,0.00,,---,0.00,VWS V14.01,2013-04-21 21:46:00,
2013-04-21 17:51:00,72.2,67.4,30.05,NE,51,3.0,9.0,85,0.00,,---,0.00,VWS V14.01,2013-04-21 21:51:00,
2013-04-21 17:56:00,72.1,67.7,30.05,North,11,3.0,9.0,86,0.00,,---,0.00,VWS V14.01,2013-04-21 21:56:00,
2013-04-21 18:00:00,72.0,67.6,30.05,NE,52,3.0,9.0,86,0.00,,---,0.00,VWS V14.01,2013-04-21 22:00:00,
2013-04-21 18:01:00,72.0,67.6,30.05,NNE,15,3.0,3.0,86,0.00,,---,0.00,VWS V14.01,2013-04-21 22:01:00,
2013-04-21 18:06:00,71.9,67.5,30.05,North,5,4.0,9.0,86,0.00,,---,0.00,VWS V14.01,2013-04-21 22:06:00,
2013-04-21 18:11:00,71.7,67.3,30.05,North,11,2.0,9.0,86,0.00,,---,0.00,VWS V14.01,2013-04-21 22:11:00,
2013-04-21 18:17:00,71.6,67.5,30.05,NNE,19,2.0,9.0,87,0.00,,---,0.00,VWS V14.01,2013-04-21 22:17:00,
2013-04-21 18:22:00,71.6,67.5,30.06,North,355,3.0,9.0,87,0.00,,---,0.00,VWS V14.01,2013-04-21 22:22:00,
2013-04-21 18:27:00,71.5,67.4,30.06,NNE,28,1.0,9.0,87,0.00,,---,0.00,VWS V14.01,2013-04-21 22:27:00,
2013-04-21 18:30:00,71.5,67.4,30.06,NE,36,4.0,9.0,87,0.00,,---,0.00,VWS V14.01,2013-04-21 22:30:00,
2013-04-21 18:32:00,71.3,67.2,30.06,North,5,4.0,7.0,87,0.00,,---,0.00,VWS V14.01,2013-04-21 22:32:00,
2013-04-21 18:37:00,71.2,67.1,30.07,WNW,296,2.0,7.0,87,0.00,,---,0.00,VWS V14.01,2013-04-21 22:37:00,
2013-04-21 18:42:00,71.1,67.4,30.06,NE,53,5.0,8.0,88,0.00,,---,0.00,VWS V14.01,2013-04-21 22:42:00,
2013-04-21 18:47:00,71.0,67.3,30.06,NE,53,3.0,8.0,88,0.00,,---,0.00,VWS V14.01,2013-04-21 22:47:00,
2013-04-21 18:52:00,70.9,67.2,30.06,NNE,24,4.0,8.0,88,0.00,,---,0.00,VWS V14.01,2013-04-21 22:52:00,
2013-04-21 18:57:00,70.8,67.1,30.06,NE,51,6.0,8.0,88,0.00,,---,0.00,VWS V14.01,2013-04-21 22:57:00,
2013-04-21 19:00:00,70.8,67.1,30.07,NNE,33,5.0,8.0,88,0.00,,---,0.00,VWS V14.01,2013-04-21 23:00:00,
2013-04-21 19:02:00,70.7,67.0,30.07,NNW,340,7.0,7.0,88,0.00,,---,0.00,VWS V14.01,2013-04-21 23:02:00,
2013-04-21 19:07:00,70.6,66.9,30.07,NNW,348,4.0,9.0,88,0.00,,---,0.00,VWS V14.01,2013-04-21 23:07:00,
2013-04-21 19:12:00,70.4,66.7,30.06,North,351,1.0,9.0,88,0.00,,---,0.00,VWS V14.01,2013-04-21 23:12:00,
2013-04-21 19:17:00,70.3,66.6,30.06,NNE,24,5.0,9.0,88,0.00,,---,0.00,VWS V14.01,2013-04-21 23:17:00,
2013-04-21 19:22:00,70.1,66.4,30.06,NE,46,5.0,9.0,88,0.00,,---,0.00,VWS V14.01,2013-04-21 23:22:00,
2013-04-21 19:27:00,70.0,66.6,30.06,NE,34,2.0,9.0,89,0.00,,---,0.00,VWS V14.01,2013-04-21 23:27:00,
2013-04-21 19:30:00,69.9,66.5,30.06,North,360,1.0,9.0,89,0.00,,---,0.00,VWS V14.01,2013-04-21 23:30:00,
2013-04-21 19:32:00,69.8,66.4,30.06,North,355,4.0,7.0,89,0.00,,---,0.00,VWS V14.01,2013-04-21 23:32:00,
2013-04-21 19:37:00,69.7,66.6,30.06,NE,48,6.0,8.0,90,0.00,,---,0.00,VWS V14.01,2013-04-21 23:37:00,
2013-04-21 19:42:00,69.5,66.4,30.06,NE,44,0.0,8.0,90,0.00,,---,0.00,VWS V14.01,2013-04-21 23:42:00,
2013-04-21 19:47:00,69.4,66.7,30.06,ENE,68,4.0,8.0,91,0.00,,---,0.00,VWS V14.01,2013-04-21 23:47:00,
2013-04-21 19:52:00,69.3,66.6,30.06,ENE,71,4.0,8.0,91,0.00,,---,0.00,VWS V14.01,2013-04-21 23:52:00,
2013-04-21 19:57:00,69.2,66.5,30.06,NE,43,4.0,9.0,91,0.00,,---,0.00,VWS V14.01,2013-04-21 23:57:00,
2013-04-21 20:00:00,69.2,66.8,30.06,NNE,32,0.0,9.0,92,0.00,,---,0.00,VWS V14.01,2013-04-22 00:00:00,
2013-04-21 20:02:00,69.2,66.8,30.06,NE,40,2.0,9.0,92,0.00,,---,0.00,VWS V14.01,2013-04-22 00:02:00,
2013-04-21 20:07:00,69.1,66.7,30.06,NNE,18,3.0,9.0,92,0.00,,---,0.00,VWS V14.01,2013-04-22 00:07:00,
2013-04-21 20:12:00,69.0,66.9,30.06,NNE,20,2.0,9.0,93,0.00,,---,0.00,VWS V14.01,2013-04-22 00:12:00,
2013-04-21 20:18:00,69.0,66.9,30.07,North,351,3.0,9.0,93,0.00,,---,0.00,VWS V14.01,2013-04-22 00:18:00,
2013-04-21 20:23:00,68.9,66.8,30.07,NNE,15,5.0,9.0,93,0.00,,---,0.00,VWS V14.01,2013-04-22 00:23:00,
2013-04-21 20:28:00,68.9,67.1,30.07,North,360,1.0,9.0,94,0.00,,---,0.00,VWS V14.01,2013-04-22 00:28:00,
2013-04-21 20:30:00,68.9,67.1,30.07,North,5,3.0,9.0,94,0.00,,---,0.00,VWS V14.01,2013-04-22 00:30:00,
2013-04-21 20:33:00,68.9,67.1,30.08,NNE,13,1.0,6.0,94,0.00,,---,0.00,VWS V14.01,2013-04-22 00:33:00,
2013-04-21 20:37:00,68.9,67.1,30.08,NW,321,7.0,7.0,94,0.00,,---,0.00,VWS V14.01,2013-04-22 00:37:00,
2013-04-21 20:43:00,68.9,67.1,30.08,NNW,345,1.0,10.0,94,0.00,,---,0.00,VWS V14.01,2013-04-22 00:43:00,
2013-04-21 20:48:00,68.9,67.1,30.09,NNE,33,3.0,10.0,94,0.00,,---,0.00,VWS V14.01,2013-04-22 00:48:00,
2013-04-21 20:53:00,68.9,67.1,30.09,NNE,19,2.0,10.0,94,0.00,,---,0.00,VWS V14.01,2013-04-22 00:53:00,
2013-04-21 20:58:00,68.8,67.3,30.09,North,11,6.0,10.0,95,0.00,,---,0.00,VWS V14.01,2013-04-22 00:58:00,
2013-04-21 21:00:00,68.7,67.2,30.09,North,5,8.0,12.0,95,0.01,,---,0.01,VWS V14.01,2013-04-22 01:00:00,
2013-04-21 21:03:00,68.5,67.0,30.09,NNW,341,6.0,9.0,95,0.01,,---,0.01,VWS V14.01,2013-04-22 01:03:00,
2013-04-21 21:08:00,68.3,66.8,30.09,NNW,343,4.0,9.0,95,0.02,,---,0.02,VWS V14.01,2013-04-22 01:08:00,
2013-04-21 21:13:00,68.1,66.6,30.10,NNE,26,3.0,13.0,95,0.03,,---,0.03,VWS V14.01,2013-04-22 01:13:00,
2013-04-21 21:18:00,67.8,66.6,30.10,NNW,342,3.0,13.0,96,0.04,,---,0.04,VWS V14.01,2013-04-22 01:18:00,
2013-04-21 21:23:00,67.6,66.4,30.10,North,355,4.0,13.0,96,0.08,,---,0.08,VWS V14.01,2013-04-22 01:23:00,
2013-04-21 21:28:00,67.4,66.5,30.10,North,9,10.0,13.0,97,0.11,,---,0.11,VWS V14.01,2013-04-22 01:28:00,
2013-04-21 21:30:00,67.3,66.4,30.10,NW,319,2.0,13.0,97,0.11,,---,0.11,VWS V14.01,2013-04-22 01:30:00,
2013-04-21 21:33:00,67.1,66.2,30.10,North,349,1.0,7.0,97,0.13,,---,0.13,VWS V14.01,2013-04-22 01:33:00,
2013-04-21 21:38:00,67.0,66.1,30.11,North,355,7.0,7.0,97,0.15,,---,0.15,VWS V14.01,2013-04-22 01:38:00,
2013-04-21 21:43:00,66.9,66.0,30.10,NNW,346,3.0,7.0,97,0.18,,---,0.18,VWS V14.01,2013-04-22 01:43:00,
2013-04-21 21:48:00,66.8,66.2,30.10,North,11,1.0,7.0,98,0.20,,---,0.20,VWS V14.01,2013-04-22 01:48:00,
2013-04-21 21:53:00,66.8,66.2,30.09,NE,54,4.0,8.0,98,0.25,,---,0.25,VWS V14.01,2013-04-22 01:53:00,
2013-04-21 21:59:00,66.7,66.1,30.09,ENE,61,5.0,5.0,98,0.31,,---,0.31,VWS V14.01,2013-04-22 01:59:00,
2013-04-21 22:00:00,66.8,66.2,30.09,NE,50,6.0,6.0,98,0.31,,---,0.31,VWS V14.01,2013-04-22 02:00:00,
2013-04-21 22:04:00,66.7,66.1,30.09,NE,53,3.0,10.0,98,0.35,,---,0.36,VWS V14.01,2013-04-22 02:04:00,
2013-04-21 22:09:00,66.7,66.1,30.08,NE,47,1.0,10.0,98,0.37,,---,0.38,VWS V14.01,2013-04-22 02:09:00,
2013-04-21 22:14:00,66.7,66.1,30.08,North,9,5.0,10.0,98,0.38,,---,0.39,VWS V14.01,2013-04-22 02:14:00,
2013-04-21 22:20:00,66.8,66.2,30.08,NNE,22,5.0,10.0,98,0.38,,---,0.39,VWS V14.01,2013-04-22 02:20:00,
2013-04-21 22:25:00,66.8,66.5,30.08,NNW,345,1.0,10.0,99,0.39,,---,0.40,VWS V14.01,2013-04-22 02:25:00,
2013-04-21 22:30:00,66.7,66.4,30.07,NE,54,4.0,10.0,99,0.39,,---,0.40,VWS V14.01,2013-04-22 02:30:00,
2013-04-21 22:35:00,66.7,66.4,30.07,NE,56,5.0,9.0,99,0.29,,---,0.40,VWS V14.01,2013-04-22 02:35:00,
2013-04-21 22:40:00,66.7,66.4,30.07,ENE,59,0.0,9.0,99,0.29,,---,0.40,VWS V14.01,2013-04-22 02:40:00,
2013-04-21 22:45:00,66.7,66.4,30.07,NE,37,1.0,9.0,99,0.29,,---,0.40,VWS V14.01,2013-04-22 02:45:00,
2013-04-21 22:50:00,66.7,66.4,30.06,NE,56,5.0,9.0,99,0.29,,---,0.40,VWS V14.01,2013-04-22 02:50:00,
2013-04-21 22:55:00,66.7,66.4,30.05,NE,53,7.0,9.0,99,0.30,,---,0.41,VWS V14.01,2013-04-22 02:55:00,
2013-04-21 23:00:00,66.7,66.4,30.06,NE,55,2.0,9.0,99,0.30,,---,0.41,VWS V14.01,2013-04-22 03:00:00,
2013-04-21 23:05:00,66.6,66.3,30.07,NE,46,1.0,3.0,99,0.10,,---,0.41,VWS V14.01,2013-04-22 03:05:00,
2013-04-21 23:10:00,66.6,66.3,30.06,NE,46,0.0,3.0,99,0.10,,---,0.41,VWS V14.01,2013-04-22 03:10:00,
2013-04-21 23:15:00,66.6,66.3,30.07,NE,46,2.0,3.0,99,0.10,,---,0.41,VWS V14.01,2013-04-22 03:15:00,
2013-04-21 23:20:00,66.6,66.3,30.07,NE,46,1.0,3.0,99,0.10,,---,0.41,VWS V14.01,2013-04-22 03:20:00,
2013-04-21 23:25:00,66.6,66.3,30.07,NE,46,2.0,3.0,99,0.10,,---,0.41,VWS V14.01,2013-04-22 03:25:00,
2013-04-21 23:30:00,66.7,66.4,30.06,NE,46,0.0,1.0,99,0.01,,---,0.41,VWS V14.01,2013-04-22 03:30:00,
2013-04-21 23:35:00,66.7,66.4,30.06,NE,46,0.0,4.0,99,0.01,,---,0.41,VWS V14.01,2013-04-22 03:35:00,
2013-04-21 23:40:00,66.7,66.4,30.06,NE,46,1.0,4.0,99,0.01,,---,0.41,VWS V14.01,2013-04-22 03:40:00,
2013-04-21 23:45:00,66.8,66.5,30.06,NE,46,4.0,4.0,99,0.01,,---,0.41,VWS V14.01,2013-04-22 03:45:00,
2013-04-21 23:50:00,66.9,66.6,30.06,ENE,64,4.0,5.0,99,0.01,,---,0.41,VWS V14.01,2013-04-22 03:50:00,
2013-04-21 23:55:00,67.0,66.7,30.06,ENE,58,4.0,7.0,99,0.01,,---,0.41,VWS V14.01,2013-04-22 03:55:00,